This is the latest recevied weather packets stored in our database for station/object 2E0RGX-13. If no packets are shown the sender has not sent any weather packets the latest 10 day(s).
| Time | Temp. | Humidity | Pressure | Rain* | Wind** | Luminosity | Snow |
|---|---|---|---|---|---|---|---|
| 1777450332 | 13.89° C | 50% | 1021.1 hPa | 0 mm | - | 3 W/m² | - |
| 1777450028 | 13.33° C | 51% | 1021 hPa | 0 mm | - | 3 W/m² | - |
| 1777449724 | 13.89° C | 53% | 1021 hPa | 0 mm | - | 3 W/m² | - |
| 1777449420 | 13.33° C | 54% | 1021.2 hPa | 0 mm | - | 2 W/m² | - |
| 1777449117 | 13.33° C | 55% | 1021.1 hPa | 0 mm | - | 2 W/m² | - |
| 1777448205 | 12.78° C | 59% | 1020.9 hPa | 0 mm | - | 2 W/m² | - |
| 1777447901 | 12.78° C | 60% | 1021 hPa | 0 mm | - | 2 W/m² | - |
| 1777447597 | 12.78° C | 60% | 1021.3 hPa | 0 mm | - | 2 W/m² | - |
| 1777447293 | 12.78° C | 60% | 1021 hPa | 0 mm | - | 2 W/m² | - |
| 1777446989 | 12.22° C | 62% | 1021.2 hPa | 0 mm | - | 2 W/m² | - |
| 1777446685 | 12.22° C | 62% | 1020.7 hPa | 0 mm | - | 2 W/m² | - |
| 1777446381 | 12.22° C | 64% | 1020.8 hPa | 0 mm | - | 2 W/m² | - |
| 1777446077 | 11.67° C | 65% | 1020.9 hPa | 0 mm | - | 2 W/m² | - |
| 1777445773 | 11.67° C | 65% | 1020.8 hPa | 0 mm | - | 1 W/m² | - |
| 1777445468 | 11.67° C | 66% | 1020.8 hPa | 0 mm | - | 1 W/m² | - |
| 1777444860 | 11.11° C | 69% | 1020.7 hPa | 0 mm | - | 1 W/m² | - |
| 1777444556 | 10.56° C | 70% | 1020.8 hPa | 0 mm | - | 1 W/m² | - |
| 1777444252 | 10.56° C | 70% | 1020.7 hPa | 0 mm | - | 1 W/m² | - |
| 1777443948 | 10.56° C | 71% | 1020.7 hPa | 0 mm | - | 1 W/m² | - |
| 1777443644 | 10.56° C | 71% | 1020.7 hPa | 0 mm | - | 1 W/m² | - |
| 1777443340 | 10° C | 72% | 1020.8 hPa | 0 mm | - | 1 W/m² | - |
| 1777443036 | 10° C | 73% | 1020.7 hPa | 0 mm | - | 1 W/m² | - |
| 1777442732 | 10° C | 73% | 1020.6 hPa | 0 mm | - | 1 W/m² | - |
| 1777442428 | 9.44° C | 73% | 1020.6 hPa | 0 mm | - | 1 W/m² | - |
| 1777442124 | 9.44° C | 74% | 1020.7 hPa | 0 mm | - | 1 W/m² | - |
* Rain latest hour (hover to see other rain measurements)
** Current wind speed in m/s (hover to see current wind gust speed)